[[{"header":{"parameterUnit":"m.s-1","parameterCategory":1,"la1":30.2991,"la2":30.254,"lo1":-89.0895,"lo2":-89.0444,"dy":0.0017,"dx":0.0017,"nx":28,"ny":28,"refTime":"2024-09-29T09:00:00:Z","depth":0,"parameterNumber":2,"parameterNumberName":"U-component_of_WINDS"},"data":[0,0,0,0,0,0,0,0,0,0,0,0,0,0,0,0,0,0,0,0,0,0,0,0,0,0,0,0,0,0,0,0,0,0,0,0,0,0,0,0,0,0,0,0,0,0,0,0,0,0,0,0,0,0,0,0,0,0,2.7826,2.7827,0,2.7962,2.7964,2.7966,2.7901,2.7898,2.7894,2.7891,2.8036,2.8043,2.805,0,0,0,0,0,0,0,0,0,0,0,0,0,2.7516,2.7522,2.7826,2.7828,2.7829,2.7962,2.7964,2.7966,2.7902,2.7897,2.7893,2.7889,2.8034,2.8042,2.8051,0,0,0,0,0,0,0,0,0,0,0,0,0,2.7651,2.7524,2.7826,2.7813,2.7813,2.7962,2.7964,2.7966,2.7903,2.7897,2.7892,2.7887,2.8031,2.8041,2.8052,2.8222,0,0,2.8084,2.8089,0,0,0,0,0,0,0,0,2.7644,2.7663,2.7813,2.7814,2.7815,2.7909,2.7908,2.8052,2.7904,2.7869,2.7891,2.7885,2.7998,2.8011,2.8049,2.8229,2.8235,2.8085,2.8092,2.8096,2.8099,0,0,0,0,0,0,0,2.7634,2.7657,2.788,2.7816,2.7817,2.7803,2.7816,2.7935,2.7962,2.7872,2.7867,2.7884,2.7998,2.8039,2.8052,2.8237,2.8085,2.8094,2.8101,2.8105,2.8567,2.8572,0,0,0,0,0,0,2.7625,2.7649,2.7876,2.7884,2.7714,2.7813,2.7828,2.7884,2.796,2.7966,2.7888,2.788,2.8023,2.8039,2.8056,2.8262,2.8096,2.8106,2.8112,2.8561,2.8568,2.8574,0,0,0,0,0,0,2.7618,2.7645,2.787,2.7766,2.7793,2.7823,2.7888,2.789,2.793,2.7972,2.7977,2.7925,2.8019,2.8041,2.8182,2.8266,2.8111,2.8121,2.8554,2.8563,2.8571,2.8675,0,0,0,0,0,0,2.7609,2.7643,2.7707,2.7767,2.7799,2.7992,2.7893,2.7896,2.7948,2.7939,2.8008,2.8014,2.8017,2.8166,2.8192,2.8278,2.8129,2.8547,2.8558,2.8568,2.8664,2.8686,2.8705,0,0,0,0,0,2.7599,2.7731,2.771,2.7738,2.7879,2.7996,2.8015,2.8013,2.7955,2.8021,2.8048,2.8012,2.8253,2.8181,2.821,2.8301,2.8541,2.8555,2.8568,2.8655,2.8682,2.8704,0,0,0,0,0,0,2.7682,2.7739,2.7716,2.7872,2.793,2.7985,2.8067,2.8042,2.8118,2.8107,2.8104,2.812,2.8266,2.8297,2.8216,2.8471,2.8388,2.8408,2.8445,2.8471,2.8491,2.8481,2.8138,0,0,0,0,0,2.7718,2.7807,2.7853,2.7986,2.8016,2.8037,2.8088,2.8082,2.8143,2.8167,2.8204,2.8266,2.8355,2.8415,2.8499,2.8668,2.8683,2.8745,2.8765,2.8782,2.8799,2.8893,2.8922,2.8618,2.8618,2.8617,0,0,2.7794,2.7836,2.7893,2.8004,2.8048,2.8142,2.8058,2.8161,2.8232,2.8183,2.8318,2.8348,2.8416,2.8572,2.8642,2.8602,2.8887,2.8799,2.8812,2.882,2.891,2.8938,2.8964,2.8627,2.8625,2.8624,0,0,2.7982,2.8022,2.8138,2.8183,2.825,2.8263,2.8292,2.8351,2.8369,2.8503,2.847,2.8555,2.8708,2.8759,2.8805,2.9013,2.8984,2.9041,2.9149,2.924,2.9264,2.9285,2.9362,2.9389,2.9058,2.9058,2.9059,0,2.8068,2.8207,2.8201,2.8307,2.8358,2.8317,2.8436,2.8481,2.8574,2.8611,2.8564,2.8757,2.88,2.8968,2.9019,2.9057,2.9091,2.9034,2.9261,2.9282,2.9302,2.9375,2.9403,2.9065,2.9064,2.9064,2.9063,0,2.8312,2.8409,2.8495,2.8584,2.8644,2.8756,2.8769,2.8832,2.8821,2.884,2.8979,2.9029,2.9124,2.9163,2.9154,2.9331,2.9304,2.926,2.9177,2.9338,2.9406,2.9434,2.9074,2.9072,2.907,2.9068,0,0,2.8556,2.8639,2.8671,2.8712,2.8783,2.8859,2.8971,2.9062,2.9116,2.9182,2.9277,2.9408,2.9368,2.942,2.9416,2.9496,2.9661,2.9442,2.9444,2.9483,2.9861,2.9895,2.9927,2.9641,2.9646,2.9651,2.9856,0,2.8749,2.8942,2.894,2.912,2.9211,2.9174,2.9271,2.9327,2.9348,2.943,2.9454,2.9548,2.9486,2.9517,2.9595,2.9624,2.9737,2.9609,2.9732,2.9736,2.9717,2.9963,2.9999,3.019,2.9882,2.9887,2.989,0,2.9001,2.9073,2.9261,2.9321,2.9359,2.9446,2.9531,2.9609,2.9672,2.9682,2.9741,2.9725,2.9841,2.9754,2.9915,2.9829,2.9879,2.9901,2.9909,2.9921,2.9824,2.9984,3.0251,3.028,2.9932,2.9928,2.9925,0,2.9162,2.9307,2.9438,2.9474,2.9546,2.9609,2.9642,2.97,2.9755,2.983,2.9866,2.9954,3.0003,3.0072,3.0082,3.0017,3.0245,3.0158,3.0258,3.0258,3.0308,3.0305,3.0589,3.0339,3.0338,3.0338,3.0337,0,2.938,2.9497,2.9512,2.9593,2.9724,2.9722,2.9852,2.988,2.9932,3.002,2.9994,3.0077,3.0084,3.0171,3.0179,3.0313,3.0334,3.0347,3.0349,3.0351,3.0349,3.0385,3.0372,3.0345,3.0344,3.0342,3.0341,0,2.9582,2.9597,2.9738,2.9794,2.9812,2.9906,2.9955,3.0034,3.0052,3.0164,3.019,3.022,3.0321,3.0337,3.0455,3.0461,3.0621,3.0608,3.06,3.0598,3.0698,3.0689,3.1016,3.1059,3.0779,3.0781,3.0784,0,2.9721,2.981,2.9876,2.9932,2.9968,3.0059,3.0115,3.0117,3.0177,3.0257,3.0327,3.0424,3.0502,3.0666,3.0699,3.0791,3.078,3.0888,3.0794,3.0794,3.0784,3.0779,3.0789,3.0907,3.091,3.0913,3.0915,0,2.9966,2.9968,3.0049,3.0134,3.0202,3.0269,3.0332,3.038,3.0391,3.046,3.0562,3.0623,3.0743,3.0842,3.0932,3.0969,3.0946,3.0944,3.0972,3.0976,3.0968,3.0976,3.0651,3.0937,3.0935,3.0933,3.0932,3.0931,3.0142,3.022,3.0279,3.037,3.0418,3.0478,3.0555,3.0583,3.0667,3.0764,3.0761,3.0873,3.0937,3.1055,3.1098,3.1188,3.1153,3.1194,3.1205,3.1215,3.1226,3.0953,3.1204,3.1204,3.1203,3.1203,3.1202,0,3.0387,3.0423,3.0507,3.0596,3.0669,3.0637,3.0706,3.077,3.0869,3.0929,3.1006,3.1124,3.122,3.1261,3.1355,3.1419,3.1411,3.1444,3.1441,3.145,3.125,3.1217,3.145,3.145,3.145,3.145,3.1449,3.1449,3.0523,3.0654,3.0664,3.0819,3.0855,3.0963,3.1006,3.1062,3.111,3.1242,3.1321,3.1346,3.14,3.1498,3.1585,3.1594,3.1632,3.167,3.1676,3.1489,3.1464,3.144,3.1409,3.1678,3.1678,3.1868,3.187,3.1871]},{"header":{"parameterUnit":"m.s-1","parameterCategory":1,"la1":30.2991,"la2":30.254,"lo1":-89.0895,"lo2":-89.0444,"dy":0.0017,"dx":0.0017,"nx":28,"ny":28,"refTime":"2024-09-29T09:00:00:Z","depth":0,"parameterNumber":3,"parameterNumberName":"V-component_of_WINDS"},"data":[0,0,0,0,0,0,0,0,0,0,0,0,0,0,0,0,0,0,0,0,0,0,0,0,0,0,0,0,0,0,0,0,0,0,0,0,0,0,0,0,0,0,0,0,0,0,0,0,0,0,0,0,0,0,0,0,0,0,-1.5073,-1.5073,0,-1.5084,-1.5085,-1.5085,-1.5106,-1.5106,-1.5106,-1.5107,-1.5117,-1.5117,-1.5117,0,0,0,0,0,0,0,0,0,0,0,0,0,-1.5066,-1.5067,-1.5073,-1.5073,-1.5073,-1.5084,-1.5085,-1.5085,-1.5105,-1.5106,-1.5106,-1.5107,-1.5117,-1.5117,-1.5117,0,0,0,0,0,0,0,0,0,0,0,0,0,-1.5073,-1.5067,-1.5073,-1.5085,-1.5086,-1.5084,-1.5085,-1.5085,-1.5105,-1.5106,-1.5107,-1.5107,-1.5117,-1.5117,-1.5117,-1.5104,0,0,-1.5116,-1.5116,0,0,0,0,0,0,0,0,-1.5072,-1.5073,-1.5083,-1.5084,-1.5085,-1.5094,-1.5086,-1.5091,-1.5105,-1.5098,-1.5107,-1.5107,-1.5109,-1.5109,-1.511,-1.5104,-1.5105,-1.5116,-1.5116,-1.5116,-1.5116,0,0,0,0,0,0,0,-1.5072,-1.5073,-1.5077,-1.5083,-1.5084,-1.5089,-1.5091,-1.5087,-1.51,-1.5099,-1.51,-1.5101,-1.511,-1.511,-1.5111,-1.5105,-1.5116,-1.5116,-1.5116,-1.5116,-1.5088,-1.5087,0,0,0,0,0,0,-1.507,-1.5072,-1.5077,-1.5078,-1.508,-1.5089,-1.509,-1.5091,-1.51,-1.5102,-1.5101,-1.5102,-1.511,-1.5111,-1.5111,-1.5096,-1.5116,-1.5116,-1.5116,-1.5089,-1.5088,-1.5087,0,0,0,0,0,0,-1.507,-1.507,-1.5077,-1.5075,-1.5076,-1.5088,-1.5088,-1.5091,-1.5091,-1.5102,-1.5104,-1.5099,-1.5111,-1.5111,-1.5105,-1.5096,-1.5116,-1.5116,-1.5089,-1.5088,-1.5087,-1.5065,0,0,0,0,0,0,-1.5069,-1.507,-1.5066,-1.5075,-1.5076,-1.5071,-1.5088,-1.509,-1.5091,-1.5093,-1.5101,-1.5103,-1.5111,-1.5106,-1.5105,-1.5096,-1.5116,-1.509,-1.5089,-1.5088,-1.5066,-1.5063,-1.506,0,0,0,0,0,-1.5069,-1.5059,-1.5065,-1.5066,-1.5071,-1.5071,-1.5071,-1.5082,-1.509,-1.5086,-1.5092,-1.5102,-1.5098,-1.5105,-1.5105,-1.5096,-1.5091,-1.5089,-1.5088,-1.5068,-1.5064,-1.506,0,0,0,0,0,0,-1.5047,-1.506,-1.5068,-1.506,-1.5064,-1.5074,-1.5068,-1.5078,-1.5079,-1.5081,-1.5093,-1.5095,-1.5087,-1.5091,-1.5099,-1.5083,-1.5096,-1.5094,-1.508,-1.5077,-1.5074,-1.5072,-1.5116,0,0,0,0,0,-1.5042,-1.5041,-1.5052,-1.5044,-1.5046,-1.5057,-1.5057,-1.5065,-1.5069,-1.5071,-1.5077,-1.508,-1.5079,-1.5079,-1.5079,-1.5068,-1.5069,-1.5061,-1.5058,-1.5056,-1.5054,-1.5047,-1.5043,-1.5082,-1.5082,-1.5082,0,0,-1.503,-1.5037,-1.5035,-1.504,-1.5044,-1.5041,-1.5058,-1.5055,-1.5053,-1.507,-1.5065,-1.5069,-1.5074,-1.5065,-1.5062,-1.5068,-1.5043,-1.5054,-1.5052,-1.5051,-1.5045,-1.5041,-1.5038,-1.5081,-1.5081,-1.5082,0,0,-1.5007,-1.5013,-1.5006,-1.501,-1.5016,-1.5024,-1.5022,-1.5031,-1.5034,-1.5029,-1.5042,-1.5039,-1.5038,-1.504,-1.5042,-1.5019,-1.5028,-1.5019,-1.5003,-1.4996,-1.4993,-1.499,-1.498,-1.4977,-1.5017,-1.5017,-1.5017,0,-1.4992,-1.4989,-1.5002,-1.4998,-1.4999,-1.5015,-1.5008,-1.5011,-1.5016,-1.5016,-1.5024,-1.5022,-1.5026,-1.5017,-1.5012,-1.5013,-1.501,-1.5017,-1.4992,-1.499,-1.4987,-1.4978,-1.4975,-1.5016,-1.5016,-1.5016,-1.5016,0,-1.4969,-1.4967,-1.4961,-1.4966,-1.4967,-1.4961,-1.4972,-1.4971,-1.4979,-1.4985,-1.4979,-1.4985,-1.4986,-1.4985,-1.4992,-1.4977,-1.498,-1.499,-1.5003,-1.4982,-1.4974,-1.4971,-1.5014,-1.5015,-1.5015,-1.5015,0,0,-1.4932,-1.4944,-1.4942,-1.4944,-1.4951,-1.495,-1.4945,-1.4946,-1.4944,-1.4947,-1.4942,-1.4941,-1.495,-1.4951,-1.4959,-1.4953,-1.4933,-1.4963,-1.4963,-1.4956,-1.4914,-1.4906,-1.4902,-1.494,-1.4939,-1.4939,-1.4913,0,-1.491,-1.4902,-1.4913,-1.4902,-1.49,-1.4915,-1.4911,-1.4914,-1.492,-1.4918,-1.4925,-1.4923,-1.4935,-1.4936,-1.4931,-1.4936,-1.4925,-1.4939,-1.4934,-1.4933,-1.493,-1.4898,-1.4889,-1.4865,-1.491,-1.491,-1.491,0,-1.4882,-1.4884,-1.4873,-1.4881,-1.4881,-1.4876,-1.4878,-1.4876,-1.4881,-1.4885,-1.4886,-1.4896,-1.4891,-1.4904,-1.4896,-1.4905,-1.4904,-1.4907,-1.4906,-1.4905,-1.4919,-1.4894,-1.4858,-1.4853,-1.4905,-1.4905,-1.4906,0,-1.4854,-1.4855,-1.4848,-1.4849,-1.4859,-1.4855,-1.4858,-1.4863,-1.4863,-1.4864,-1.4864,-1.4865,-1.4864,-1.4864,-1.4873,-1.4883,-1.4863,-1.4878,-1.4866,-1.4865,-1.486,-1.486,-1.4821,-1.4862,-1.4862,-1.4862,-1.4862,0,-1.4827,-1.482,-1.4835,-1.4831,-1.4822,-1.4835,-1.4826,-1.4831,-1.4836,-1.4832,-1.4845,-1.4841,-1.4854,-1.4852,-1.4859,-1.485,-1.485,-1.4853,-1.4855,-1.4851,-1.485,-1.4849,-1.485,-1.4861,-1.4861,-1.4861,-1.4862,0,-1.4794,-1.4805,-1.4798,-1.4807,-1.4809,-1.4803,-1.481,-1.4806,-1.4813,-1.4808,-1.4807,-1.4818,-1.4815,-1.4824,-1.4823,-1.4828,-1.4815,-1.482,-1.4813,-1.4814,-1.4801,-1.4801,-1.4759,-1.4753,-1.4799,-1.4798,-1.4798,0,-1.4775,-1.477,-1.4779,-1.4777,-1.478,-1.4778,-1.4778,-1.479,-1.4789,-1.4793,-1.4788,-1.4787,-1.4786,-1.4781,-1.4787,-1.4786,-1.4791,-1.4776,-1.479,-1.4786,-1.4788,-1.4788,-1.4786,-1.4772,-1.4772,-1.4771,-1.4771,0,-1.474,-1.4746,-1.4745,-1.4746,-1.4745,-1.4747,-1.4749,-1.4747,-1.476,-1.4758,-1.4756,-1.4755,-1.4754,-1.4751,-1.4752,-1.4755,-1.4764,-1.4766,-1.4763,-1.4758,-1.4754,-1.4754,-1.4803,-1.4767,-1.4767,-1.4768,-1.4768,-1.4768,-1.4713,-1.4708,-1.4713,-1.4712,-1.4715,-1.4716,-1.4713,-1.4719,-1.4717,-1.4717,-1.4725,-1.472,-1.4724,-1.4726,-1.4727,-1.4724,-1.473,-1.4726,-1.4725,-1.4723,-1.472,-1.4756,-1.4724,-1.4724,-1.4724,-1.4724,-1.4724,0,-1.4677,-1.4681,-1.468,-1.4682,-1.4681,-1.4691,-1.4694,-1.4692,-1.4688,-1.4691,-1.469,-1.4686,-1.4684,-1.4691,-1.469,-1.4685,-1.4689,-1.4684,-1.4684,-1.4684,-1.4715,-1.4717,-1.468,-1.468,-1.468,-1.468,-1.4681,-1.4681,-1.4658,-1.465,-1.4656,-1.4649,-1.4654,-1.465,-1.465,-1.4651,-1.4653,-1.4649,-1.4647,-1.4652,-1.4656,-1.4655,-1.4653,-1.4655,-1.4653,-1.4646,-1.4649,-1.4678,-1.4682,-1.4686,-1.4688,-1.4646,-1.4646,-1.4618,-1.4618,-1.4618]}]]